Temperature
20 20 19 19 19 19 19 18 18 18 18 18 18 18 18 18 18 18 17 17 17 17 17 17 17 17 17 17 17 17 17 17 17 17 17 16 16 16 16 15 15 15 15
20 20 19 19 19 19 19 18 18 19 18 18 18 18 18 18 18 17 17 17 17 17 17 17 17 17 16 16 17 17 17 16 16 16 16 16 16 15 15 16 15 15 15
20 19 19 19 19 19 19 19 18 18 18 18 18 18 18 18 17 17 17 17 17 17 17 16 16 16 16 16 16 16 16 16 16 16 16 16 16 15 15 15 15 15 15
20 19 19 19 19 19 19 19 19 18 18 18 18 18 18 17 17 17 17 17 17 17 16 16 16 16 16 16 16 16 16 16 16 16 16 16 16 15 15 15 15 15 15
20 19 19 19 19 19 19 19 19 18 18 18 18 18 17 17 17 17 17 17 17 16 16 16 16 16 16 16 16 16 16 16 16 16 16 16 16 15 15 15 15 15 15
20 19 19 19 19 19 18 18 18 18 18 18 17 17 17 17 18 17 17 17 16 16 16 16 16 16 16 16 16 16 16 15 15 15 16 16 15 15 15 15 15 15 15
20 19 19 19 19 18 18 18 18 18 18 18 17 17 17 17 17 17 17 17 16 16 16 16 16 16 16 15 15 15 15 15 15 15 15 15 15 15 14 14 14 14 14
20 19 19 18 18 18 18 18 18 18 17 17 17 17 17 17 17 17 17 16 16 16 16 16 15 15 15 15 15 15 15 15 15 15 15 15 14 14 14 14 14 14 14
19 19 19 18 18 18 18 18 18 18 17 17 17 17 17 17 17 17 17 16 16 16 15 15 15 15 15 15 15 14 14 14 15 15 15 15 15 14 14 14 13 14 14
19 19 19 19 18 18 18 18 18 17 17 17 17 17 17 17 17 17 16 16 16 15 15 15 15 15 15 15 15 14 14 14 14 14 14 14 14 14 14 13 13 13 14
19 19 18 18 18 18 18 18 17 17 17 17 16 17 17 17 17 16 16 16 15 15 16 16 15 15 15 15 15 14 14 14 14 14 14 14 14 14 14 13 13 13 13
19 18 18 18 18 18 18 17 17 17 17 17 16 16 16 16 16 16 16 16 15 15 15 15 15 15 15 14 14 14 14 14 14 14 14 14 14 14 13 13 13 13 13
18 18 18 18 18 17 17 17 17 17 16 16 16 16 16 16 16 16 16 16 15 15 14 14 14 14 14 14 14 14 14 14 13 14 14 14 14 13 13 13 13 13 13
18 18 18 18 17 17 17 17 17 17 16 16 16 16 16 16 15 15 15 15 15 15 14 14 14 14 14 14 14 14 14 13 13 13 13 13 13 13 13 13 12 12 12
18 17 17 17 17 17 17 17 16 16 16 16 16 16 16 16 15 15 15 14 14 14 14 14 14 14 14 14 14 13 13 13 13 13 13 13 13 13 12 12 12 12 12
17 17 17 17 17 16 16 16 16 16 16 16 16 16 15 15 15 15 15 14 14 14 14 13 14 13 13 13 13 13 13 13 13 12 12 12 12 12 12 12 12 12 12
17 16 17 16 16 16 16 16 16 16 16 16 16 15 15 15 15 15 14 14 14 14 13 13 13 13 13 13 13 13 13 13 12 12 12 12 12 12 11 11 11 11 11
16 16 16 16 16 16 16 16 16 16 15 16 15 15 15 15 14 14 14 14 13 13 13 13 12 12 12 12 12 12 12 12 11 11 11 11 11 11 11 11 11 11 10
16 16 16 16 16 16 15 15 15 15 15 15 15 15 14 14 14 13 13 13 13 13 13 12 12 12 12 12 12 12 12 11 11 11 11 11 10 10 10 10 10 10 10
15 15 15 15 15 15 15 15 15 15 15 15 14 14 14 14 14 13 13 13 12 12 12 12 12 12 12 11 11 11 11 11 11 10 10 10 10 10 10 10 10 10 10
15 15 15 14 14 15 14 14 14 14 14 14 14 14 13 13 13 13 13 12 12 12 12 12 11 11 11 11 11 11 10 10 10 10 10 10 9 9 9 9 9 9 9
14 14 14 14 14 14 14 14 14 14 14 14 13 13 13 13 13 13 12 12 12 12 11 11 11 11 11 10 10 10 10 10 9 9 9 9 9 9 9 9 9 9 9
14 14 14 14 14 13 13 13 13 13 13 13 13 13 13 12 12 12 12 11 11 11 11 10 10 10 10 10 10 9 9 9 9 9 8 8 8 8 8 8 8 8 9
14 14 14 14 13 13 13 13 13 13 13 13 12 12 12 12 11 11 11 11 11 10 10 10 10 9 9 9 9 9 9 8 8 8 8 8 8 8 8 8 8 8 8
13 13 13 13 13 13 13 13 13 12 12 12 12 12 12 11 11 11 10 10 10 10 10 9 9 9 9 9 8 8 8 8 8 8 8 8 7 7 8 8 8 8 8
13 13 13 13 13 12 12 12 12 12 12 11 11 11 11 11 11 10 10 10 10 9 9 9 9 8 8 8 8 8 8 8 8 8 7 7 7 7 7 7 7 7 7
Wind_Speed
9 9 8 8 7 7 6 6 5 5 5 5 4 4 4 4 4 3 3 2 3 2 3 2 3 3 3 3 3 3 3 4 4 3 2 1 2 3 1 3 4 5 5
9 9 9 8 8 7 7 6 6 6 6 5 5 4 5 4 4 4 4 3 3 3 3 3 3 3 3 4 3 4 4 4 5 5 4 3 3 3 3 5 4 4 5
9 9 8 8 8 7 6 6 6 6 5 5 5 5 5 5 5 5 4 4 4 4 4 4 4 4 4 4 5 5 4 4 4 5 5 3 4 3 4 5 5 5 6
9 9 9 8 8 7 7 7 6 6 6 6 5 5 5 5 5 5 5 5 5 5 5 5 5 5 5 5 5 5 5 5 4 5 5 4 4 4 4 5 5 5 6
9 9 8 7 7 7 7 6 6 6 6 6 6 6 5 6 5 5 6 6 5 5 5 6 6 5 4 5 5 5 5 5 5 5 5 5 5 4 5 5 6 5 5
9 8 7 7 7 7 7 7 7 6 6 6 6 6 6 4 1 2 5 5 6 6 6 6 7 6 6 7 7 6 6 7 7 6 6 6 6 6 5 6 6 6 6
8 7 7 7 7 7 7 7 7 7 6 6 6 6 5 4 2 3 6 6 7 6 6 6 7 5 6 6 7 9 9 8 9 9 8 8 7 6 6 8 7 8 8
8 7 7 8 7 7 7 7 7 6 6 6 6 6 6 5 5 6 6 7 7 7 7 7 7 7 6 6 7 7 7 7 8 8 8 8 8 7 7 9 9 9 9
8 8 8 8 8 8 8 7 7 6 6 6 6 6 7 6 6 6 7 7 7 8 8 7 8 8 4 5 8 8 8 7 8 8 8 8 8 8 8 8 7 8 8
7 7 7 7 8 8 7 7 7 6 6 6 6 7 7 7 6 7 7 7 7 8 7 8 7 8 5 6 8 8 9 8 8 7 8 9 10 10 11 10 9 9 9
7 7 7 7 7 7 6 6 6 7 6 6 6 7 7 7 6 6 7 7 7 8 7 7 5 6 7 8 10 9 9 9 9 9 8 8 8 7 8 8 8 9 9
6 7 7 7 7 6 6 6 6 6 6 7 7 7 6 6 6 7 9 9 9 8 8 7 4 4 6 9 9 8 9 9 9 9 8 7 7 7 7 8 9 10 10
7 7 7 7 6 6 7 7 6 6 6 6 6 6 5 5 6 9 11 11 11 9 8 5 4 4 7 8 10 11 9 8 8 9 8 8 7 7 8 7 8 9 11
7 6 6 7 7 7 6 6 6 6 6 6 6 6 5 5 5 4 5 6 9 9 9 6 7 9 9 8 7 8 8 8 8 8 8 8 7 8 8 8 8 8 8
6 6 6 7 6 6 7 5 6 5 4 5 6 6 6 6 3 2 4 5 5 5 6 7 7 6 7 7 7 7 7 7 8 8 8 8 8 8 8 7 7 8 9
6 6 6 6 6 6 6 5 3 4 3 3 4 6 5 3 1 2 4 5 5 4 5 7 7 7 7 7 8 7 7 7 7 7 8 8 8 8 8 8 8 8 9
5 5 5 5 5 6 6 6 5 4 5 6 6 6 6 5 4 5 6 6 6 5 6 7 7 7 7 7 7 7 7 6 6 7 7 7 8 8 8 8 8 8 8
5 5 5 5 5 5 5 6 6 6 5 5 6 8 7 7 6 6 6 5 6 6 7 7 7 7 7 7 7 6 6 6 6 6 7 7 8 8 9 9 8 8 8
4 4 4 4 4 5 5 5 5 5 5 5 4 4 8 8 8 7 6 5 6 6 6 7 7 7 7 7 6 6 7 7 6 7 7 7 8 8 9 9 8 8 9
2 2 3 4 4 4 4 5 5 5 5 5 5 4 3 4 5 5 6 6 6 6 6 7 7 7 7 7 6 6 7 7 7 7 7 7 8 8 9 9 9 8 8
2 2 4 5 4 4 4 4 5 5 5 5 5 3 4 6 6 6 6 6 6 6 6 6 6 6 6 6 6 6 7 7 7 7 7 7 7 7 7 8 8 8 8
3 4 4 4 4 3 3 4 4 5 5 6 5 4 5 6 6 5 5 5 5 5 5 5 5 5 5 6 6 6 7 7 7 7 7 7 7 7 8 8 8 7 7
4 3 3 3 3 3 4 5 5 5 5 5 5 5 4 4 5 5 5 5 4 4 4 4 5 5 5 5 6 6 6 6 7 7 8 7 7 7 7 7 8 8 7
3 3 3 3 3 4 4 4 5 5 5 5 5 4 4 4 4 4 5 4 4 4 4 4 5 6 6 5 5 5 5 6 8 8 9 8 7 7 6 7 7 8 7
3 3 3 3 3 3 4 4 5 5 4 4 4 4 4 3 4 3 3 3 4 4 4 4 4 4 5 5 5 5 5 5 6 8 8 7 8 7 7 8 8 8 7
3 3 3 3 2 3 3 4 4 4 4 4 4 3 3 3 3 3 3 3 4 4 4 3 4 4 5 5 5 5 5 5 6 8 8 7 7 7 7 7 8 7 7
Wind_Direction
193 194 197 197 201 204 206 206 204 208 206 210 216 218 219 221 224 228 246 239 243 248 251 246 254 285 285 279 267 259 264 270 272 280 273 249 257 275 258 257 249 243 208
191 193 197 199 200 202 199 201 201 202 206 207 213 219 226 221 221 225 237 241 241 242 249 253 260 260 262 275 279 274 274 276 271 277 274 254 244 252 255 259 256 252 256
188 193 195 200 201 203 202 199 200 200 203 207 208 215 223 226 225 227 231 239 242 245 248 250 257 262 262 265 268 272 270 264 263 265 268 273 264 260 261 260 258 260 262
190 193 195 200 200 200 201 201 200 200 203 208 212 216 220 226 230 233 231 235 242 246 249 253 256 257 260 265 260 265 270 270 259 261 265 262 257 255 261 267 262 245 258
191 195 194 192 192 192 193 195 195 200 204 205 211 214 220 226 231 234 237 235 239 244 247 250 251 254 270 270 275 270 266 265 263 262 265 269 265 262 263 267 274 274 255
191 191 185 186 189 191 191 191 194 199 205 207 213 218 226 233 187 249 255 246 246 248 251 252 247 236 235 233 250 261 270 265 270 271 267 270 270 268 271 272 276 276 274
185 185 185 189 193 195 196 194 198 201 204 210 217 221 226 225 189 220 245 247 248 249 251 256 261 252 241 255 238 229 238 244 252 264 274 274 273 272 275 270 271 277 279
184 187 190 194 198 199 200 200 200 203 206 213 219 223 228 223 196 217 239 238 246 249 249 249 255 263 257 259 262 258 256 248 243 248 266 271 273 273 266 267 272 267 265
189 192 194 196 199 200 200 200 200 204 210 215 220 224 229 227 204 213 238 242 243 247 250 249 251 252 241 251 257 261 263 259 233 229 244 254 262 261 265 269 268 267 270
190 191 191 194 200 202 201 202 202 207 215 221 223 229 233 236 207 208 234 248 250 251 245 242 239 247 232 225 250 258 262 265 268 256 243 243 248 243 234 249 264 268 275
187 185 188 192 198 200 201 203 205 210 215 224 230 231 232 235 210 204 227 250 260 260 260 253 239 196 221 231 246 254 259 267 266 264 260 255 250 249 245 243 252 264 272
185 187 191 194 199 194 196 203 208 212 215 223 229 236 231 226 228 207 212 236 269 266 266 268 257 184 224 236 242 253 257 261 263 265 264 263 263 263 262 258 250 251 258
190 195 196 197 200 198 199 202 207 213 226 229 231 237 241 235 218 204 210 224 240 256 269 293 292 231 234 238 234 240 245 254 260 262 262 263 266 271 269 261 254 250 254
194 197 200 202 203 203 211 214 218 223 229 234 236 242 244 242 248 233 229 228 229 244 261 252 227 230 242 259 249 237 244 253 257 261 265 267 268 266 262 266 267 263 263
197 201 209 212 211 211 213 221 228 230 241 244 244 250 255 253 266 300 276 266 266 262 264 261 259 254 249 250 251 250 250 250 252 258 264 270 269 266 267 266 266 268 267
200 207 215 219 213 217 217 220 216 231 219 239 270 278 269 281 277 245 258 277 280 271 261 262 262 263 263 261 259 256 252 254 258 260 262 266 269 271 271 270 266 267 270
213 215 222 226 223 226 227 230 232 225 217 226 234 244 254 267 252 237 237 242 240 226 249 262 268 270 270 272 272 270 268 267 267 266 267 269 269 269 270 269 267 270 272
222 219 229 226 229 231 235 240 243 244 243 243 223 212 221 232 236 233 227 232 245 234 255 264 269 272 274 275 275 274 275 274 270 272 274 275 274 273 271 271 271 272 273
238 236 234 238 236 234 240 245 249 252 256 256 253 215 205 215 215 218 215 244 259 261 261 263 267 270 273 274 276 276 273 270 271 273 273 274 275 276 276 274 272 268 267
249 270 248 243 242 239 237 243 245 246 252 258 261 268 240 231 246 233 224 240 255 264 267 267 268 272 273 274 274 272 272 271 271 270 274 275 276 279 278 278 277 273 266
254 231 218 234 240 244 243 246 247 247 250 257 264 269 276 267 265 265 263 258 262 270 275 278 279 279 277 275 274 274 275 277 278 278 279 278 278 280 278 277 275 277 280
236 232 224 234 239 242 245 251 256 257 259 263 267 249 219 253 266 266 266 268 270 270 274 277 279 282 286 282 278 278 279 281 285 284 284 284 285 282 280 280 281 280 280
241 232 223 233 244 230 237 245 251 256 261 265 267 273 266 269 273 275 276 277 278 279 282 281 280 284 290 288 286 284 285 287 288 287 284 283 283 283 285 286 282 278 273
244 242 241 237 246 252 254 257 258 262 265 269 274 278 280 280 282 283 281 285 290 292 290 284 280 284 292 296 296 302 315 312 301 290 286 283 281 283 283 283 281 277 274
243 242 246 249 254 266 273 277 278 279 278 278 280 284 286 287 288 292 290 286 288 287 286 285 286 290 298 305 311 317 331 326 305 295 286 281 280 282 283 281 282 281 280
248 248 254 259 266 276 282 283 282 288 291 292 291 291 292 289 289 290 290 289 286 283 285 285 293 300 305 309 318 325 328 315 302 295 286 280 280 283 289 289 291 285 283
Height
1531 1532 1535 1536 1537 1539 1540 1541 1542 1543 1543 1544 1545 1545 1546 1546 1546 1546 1547 1546 1546 1545 1545 1544 1543 1543 1543 1543 1543 1542 1541 1541 1540 1539 1538 1536 1534 1533 1532 1530 1529 1528 1527
1528 1530 1532 1534 1535 1536 1538 1538 1539 1540 1541 1542 1542 1543 1544 1544 1544 1544 1544 1544 1544 1544 1543 1542 1542 1542 1541 1540 1540 1540 1539 1538 1537 1536 1535 1534 1532 1531 1529 1528 1527 1526 1525
1526 1527 1529 1531 1532 1533 1535 1536 1537 1538 1538 1539 1540 1541 1541 1542 1542 1542 1542 1542 1542 1541 1541 1540 1540 1539 1538 1538 1537 1537 1537 1536 1535 1534 1533 1532 1531 1529 1527 1526 1525 1523 1522
1523 1525 1526 1528 1529 1531 1532 1533 1534 1535 1536 1537 1537 1538 1539 1539 1539 1540 1539 1539 1539 1539 1538 1538 1537 1537 1536 1535 1535 1534 1533 1533 1532 1531 1530 1529 1527 1526 1524 1523 1522 1520 1519
1520 1522 1523 1525 1526 1527 1529 1530 1531 1532 1533 1534 1534 1535 1536 1536 1537 1537 1537 1537 1536 1536 1535 1534 1534 1533 1532 1532 1532 1531 1530 1529 1529 1528 1527 1526 1525 1523 1522 1520 1519 1518 1516
1517 1519 1520 1522 1523 1524 1526 1527 1528 1529 1530 1531 1531 1532 1533 1534 1533 1533 1533 1534 1533 1533 1532 1531 1531 1530 1528 1528 1527 1526 1526 1525 1525 1524 1523 1522 1520 1519 1518 1517 1516 1514 1513
1514 1515 1517 1519 1520 1522 1523 1524 1525 1526 1527 1528 1528 1529 1529 1529 1530 1530 1529 1530 1530 1529 1528 1528 1528 1527 1525 1525 1523 1522 1521 1520 1520 1519 1519 1517 1517 1515 1514 1513 1511 1510 1509
1511 1512 1514 1516 1518 1519 1520 1521 1521 1523 1524 1524 1525 1525 1525 1525 1525 1526 1526 1526 1525 1525 1524 1523 1523 1523 1522 1521 1520 1519 1518 1516 1515 1515 1513 1512 1512 1510 1509 1508 1506 1505 1503
1508 1509 1511 1513 1515 1516 1516 1517 1518 1519 1520 1520 1521 1521 1521 1521 1521 1521 1521 1521 1521 1520 1520 1519 1518 1518 1517 1517 1516 1515 1514 1513 1511 1510 1509 1507 1506 1505 1504 1503 1502 1501 1499
1505 1507 1508 1509 1511 1512 1513 1513 1514 1515 1516 1517 1517 1517 1517 1517 1517 1516 1516 1517 1517 1517 1515 1514 1513 1513 1512 1512 1511 1510 1509 1508 1507 1506 1504 1502 1501 1500 1499 1498 1497 1497 1494
1503 1504 1505 1506 1507 1508 1509 1510 1511 1512 1512 1513 1513 1513 1513 1512 1512 1512 1512 1512 1513 1512 1512 1511 1509 1508 1507 1506 1506 1505 1504 1503 1502 1501 1500 1498 1497 1495 1494 1493 1491 1490 1489
1500 1501 1502 1503 1505 1506 1506 1506 1507 1508 1508 1508 1509 1509 1509 1508 1507 1507 1507 1507 1507 1507 1507 1506 1505 1503 1502 1501 1500 1499 1498 1497 1497 1496 1495 1493 1492 1490 1489 1487 1485 1484 1483
1496 1498 1499 1500 1501 1502 1502 1503 1503 1504 1505 1505 1506 1505 1505 1505 1504 1503 1502 1502 1502 1501 1501 1500 1499 1497 1496 1495 1494 1493 1493 1492 1491 1490 1489 1487 1486 1485 1484 1482 1480 1478 1476
1493 1494 1495 1496 1497 1498 1499 1500 1500 1501 1501 1502 1502 1501 1501 1501 1500 1499 1498 1497 1497 1496 1496 1494 1493 1492 1491 1490 1489 1488 1487 1486 1485 1485 1483 1482 1481 1479 1478 1477 1475 1474 1472
1489 1490 1492 1493 1494 1494 1495 1495 1496 1496 1497 1497 1497 1498 1497 1497 1496 1495 1494 1493 1493 1492 1490 1489 1488 1487 1486 1485 1484 1483 1482 1481 1479 1478 1477 1476 1475 1474 1472 1471 1470 1468 1467
1486 1487 1489 1490 1491 1491 1491 1491 1490 1491 1491 1491 1491 1492 1491 1491 1490 1489 1489 1488 1487 1486 1485 1484 1483 1482 1481 1480 1479 1478 1476 1475 1474 1473 1471 1470 1469 1468 1466 1465 1464 1462 1461
1483 1484 1486 1487 1487 1487 1488 1487 1487 1487 1486 1486 1486 1486 1486 1485 1485 1484 1483 1483 1482 1481 1480 1479 1478 1477 1476 1474 1473 1472 1471 1469 1468 1467 1466 1464 1463 1461 1460 1459 1458 1456 1455
1480 1481 1482 1482 1483 1483 1484 1484 1484 1483 1482 1481 1481 1480 1480 1480 1479 1479 1478 1478 1477 1476 1475 1474 1473 1472 1471 1470 1468 1467 1465 1464 1462 1461 1460 1458 1457 1455 1454 1453 1451 1450 1449
1477 1478 1478 1479 1479 1479 1479 1480 1480 1479 1479 1478 1477 1476 1475 1475 1474 1474 1473 1473 1472 1471 1470 1469 1468 1467 1466 1465 1463 1462 1460 1458 1457 1456 1454 1453 1451 1449 1448 1446 1445 1443 1442
1474 1474 1475 1476 1476 1476 1475 1476 1475 1475 1475 1474 1474 1473 1472 1471 1470 1470 1469 1468 1467 1466 1465 1464 1463 1462 1461 1459 1458 1456 1455 1453 1452 1450 1448 1447 1445 1443 1441 1439 1438 1436 1434
1471 1471 1471 1472 1472 1472 1472 1471 1471 1471 1470 1470 1470 1469 1468 1467 1466 1466 1465 1464 1462 1462 1461 1460 1458 1457 1456 1454 1453 1451 1450 1449 1447 1445 1444 1441 1439 1437 1435 1434 1432 1430 1429
1469 1469 1468 1468 1468 1468 1468 1467 1467 1467 1466 1466 1465 1465 1463 1463 1462 1461 1460 1459 1457 1457 1456 1454 1453 1452 1451 1450 1448 1446 1445 1444 1442 1440 1438 1436 1434 1432 1430 1428 1426 1424 1423
1466 1466 1465 1465 1465 1464 1463 1463 1463 1462 1462 1461 1461 1460 1460 1458 1458 1457 1455 1454 1453 1452 1450 1449 1448 1447 1446 1445 1443 1442 1440 1439 1437 1435 1433 1431 1429 1427 1425 1423 1421 1419 1418
1463 1462 1462 1461 1462 1462 1461 1460 1459 1459 1458 1457 1457 1456 1455 1454 1453 1452 1451 1450 1448 1447 1446 1445 1444 1442 1441 1440 1438 1437 1435 1433 1432 1430 1428 1427 1425 1423 1421 1419 1417 1416 1415
1460 1459 1459 1459 1459 1458 1458 1457 1456 1455 1454 1454 1453 1452 1451 1450 1449 1448 1447 1446 1444 1443 1441 1440 1439 1438 1437 1435 1433 1432 1430 1429 1427 1425 1423 1422 1420 1419 1417 1415 1414 1413 1412
1457 1457 1457 1456 1456 1455 1455 1454 1454 1453 1452 1451 1450 1449 1448 1447 1446 1445 1444 1442 1441 1439 1437 1436 1435 1433 1432 1431 1429 1427 1426 1424 1422 1421 1419 1418 1416 1415 1413 1411 1410 1409 1408